CW7986 Weather Reports


Display with metric or nautical units.
time (UTC)temp
F
wind
direction
speed
MPH
gust
MPH
rain 1hr
in
rain 24hr
in
rain mn
in
humidity
%
barometer
mb
20260506204523 82 269 5.0 12.0 0.00 0.00 0.00 75 1014.2
20260506204002 84 270 3.0 10.0 0.00 0.00 0.00 74 1014.3
20260506203502 84 261 3.0 7.0 0.00 0.00 0.00 74 1014.3
20260506203002 84 251 2.0 7.0 0.00 0.00 0.00 74 1014.2
20260506202502 84 262 3.0 10.0 0.00 0.00 0.00 74 1014.3
20260506202004 84 258 3.0 10.0 0.00 0.00 0.00 73 1014.3
20260506201523 85 244 3.0 12.0 0.00 0.00 0.00 73 1014.3
20260506201023 84 234 3.0 12.0 0.00 0.00 0.00 73 1014.3
20260506200502 84 251 4.0 13.0 0.00 0.00 0.00 73 1014.3
20260506200003 84 259 4.0 13.0 0.00 0.00 0.00 75 1014.3
20260506195502 84 242 3.0 9.0 0.00 0.00 0.00 71 1014.3
20260506195002 86 245 3.0 9.0 0.00 0.00 0.00 72 1014.3
20260506194502 85 258 3.0 9.0 0.00 0.00 0.00 71 1014.4
20260506194002 85 264 3.0 7.0 0.00 0.00 0.00 71 1014.5
20260506193502 86 239 2.0 7.0 0.00 0.00 0.00 71 1014.6
20260506193002 86 198 2.0 6.0 0.00 0.00 0.00 71 1014.7
20260506192503 86 226 2.0 11.0 0.00 0.00 0.00 70 1014.8
20260506192023 86 237 3.0 11.0 0.00 0.00 0.00 71 1014.8
20260506191502 86 247 3.0 10.0 0.00 0.00 0.00 70 1014.8
20260506191002 86 250 2.0 10.0 0.00 0.00 0.00 72 1014.8
20260506190502 85 234 3.0 10.0 0.00 0.00 0.00 72 1014.8
20260506190002 85 241 3.0 12.0 0.00 0.00 0.00 72 1014.8
20260506185502 85 244 3.0 12.0 0.00 0.00 0.00 72 1014.8
20260506185002 86 255 3.0 10.0 0.00 0.00 0.00 72 1014.9
20260506184503 85 260 4.0 10.0 0.00 0.00 0.00 73 1015.0
20260506184002 85 255 3.0 7.0 0.00 0.00 0.00 73 1015.2
20260506183503 86 234 2.0 9.0 0.00 0.00 0.00 72 1015.2
20260506183002 86 216 3.0 9.0 0.00 0.00 0.00 72 1015.3
20260506182502 85 244 3.0 7.0 0.00 0.00 0.00 72 1015.3
20260506182025 85 256 3.0 9.0 0.00 0.00 0.00 71 1015.3
20260506181502 86 250 3.0 10.0 0.00 0.00 0.00 72 1015.3
20260506181002 85 255 3.0 12.0 0.00 0.00 0.00 73 1015.3
20260506180503 85 263 3.0 12.0 0.00 0.00 0.00 73 1015.4
20260506180003 85 253 3.0 10.0 0.00 0.00 0.00 73 1015.5
20260506175502 85 255 2.0 9.0 0.00 0.00 0.00 73 1015.5
20260506175002 85 242 3.0 13.0 0.00 0.00 0.00 74 1015.5
20260506174502 84 230 3.0 13.0 0.00 0.00 0.00 73 1015.6
20260506174024 85 259 4.0 9.0 0.00 0.00 0.00 74 1015.5
20260506173502 84 266 4.0 9.0 0.00 0.00 0.00 74 1015.6
20260506173002 85 251 4.0 12.0 0.00 0.00 0.00 74 1015.6
20260506172523 85 250 4.0 12.0 0.00 0.00 0.00 72 1015.5
20260506172023 85 250 3.0 9.0 0.00 0.00 0.00 73 1015.6
20260506171504 85 256 3.0 7.0 0.00 0.00 0.00 72 1015.7
20260506171023 86 241 3.0 7.0 0.00 0.00 0.00 71 1015.7
20260506170503 86 225 3.0 7.0 0.00 0.00 0.00 72 1015.7
20260506170002 85 256 3.0 10.0 0.00 0.00 0.00 72 1015.8
20260506165503 85 256 3.0 13.0 0.00 0.00 0.00 73 1015.8
20260506165002 85 250 3.0 13.0 0.00 0.00 0.00 74 1015.8
20260506164503 84 250 3.0 11.0 0.00 0.00 0.00 72 1015.8
20260506164003 86 218 3.0 11.0 0.00 0.00 0.00 71 1015.8
20260506163502 86 217 3.0 11.0 0.00 0.00 0.00 71 1015.8
20260506163002 86 201 4.0 13.0 0.00 0.00 0.00 70 1015.8
20260506162523 86 192 4.0 13.0 0.00 0.00 0.00 70 1015.8
20260506162003 85 198 3.0 10.0 0.00 0.00 0.00 71 1015.8
20260506161502 85 194 3.0 11.0 0.00 0.00 0.00 71 1015.8
20260506161002 85 202 3.0 11.0 0.00 0.00 0.00 71 1015.8
20260506160503 85 206 3.0 11.0 0.00 0.00 0.00 70 1015.9
20260506160002 85 217 3.0 11.0 0.00 0.00 0.00 71 1015.8
20260506155502 85 229 3.0 9.0 0.00 0.00 0.00 71 1015.9
20260506155002 85 206 3.0 9.0 0.00 0.00 0.00 71 1015.8
20260506154523 84 213 3.0 10.0 0.00 0.00 0.00 71 1015.8
20260506154002 85 214 2.0 10.0 0.00 0.00 0.00 70 1015.8
20260506153502 86 200 2.0 10.0 0.00 0.00 0.00 70 1015.9
20260506153002 85 225 2.0 10.0 0.00 0.00 0.00 69 1015.8
20260506152502 86 216 2.0 9.0 0.00 0.00 0.00 70 1015.8
20260506152023 86 191 3.0 9.0 0.00 0.00 0.00 68 1015.8
20260506151502 86 188 3.0 12.0 0.00 0.00 0.00 69 1015.8
20260506151002 86 189 2.0 12.0 0.00 0.00 0.00 69 1015.8
20260506150503 87 175 3.0 10.0 0.00 0.00 0.00 65 1015.8
20260506150002 86 167 4.0 10.0 0.00 0.00 0.00 67 1015.8
20260506145524 85 163 4.0 10.0 0.00 0.00 0.00 66 1015.8
20260506145002 85 163 4.0 10.0 0.00 0.00 0.00 67 1015.7
20260506144502 85 155 4.0 10.0 0.00 0.00 0.00 68 1015.7
20260506144002 86 151 3.0 7.0 0.00 0.00 0.00 67 1015.6
20260506143502 85 149 3.0 7.0 0.00 0.00 0.00 69 1015.5
20260506143023 85 145 3.0 9.0 0.00 0.00 0.00 70 1015.5
20260506142523 84 156 3.0 10.0 0.00 0.00 0.00 69 1015.4
20260506142003 84 149 3.0 10.0 0.00 0.00 0.00 69 1015.4
20260506141502 84 156 4.0 6.0 0.00 0.00 0.00 71 1015.5
20260506141023 83 161 4.0 6.0 0.00 0.00 0.00 71 1015.4
20260506140502 82 140 3.0 8.0 0.00 0.00 0.00 72 1015.5
20260506140002 82 144 4.0 8.0 0.00 0.00 0.00 73 1015.6
20260506135502 82 149 3.0 7.0 0.00 0.00 0.00 73 1015.6
20260506135023 82 141 3.0 6.0 0.00 0.00 0.00 73 1015.6
20260506134503 82 136 3.0 11.0 0.00 0.00 0.00 74 1015.5
20260506134002 80 142 4.0 11.0 0.00 0.00 0.00 74 1015.6
20260506133502 80 146 5.0 9.0 0.00 0.00 0.00 75 1015.5
20260506133002 79 146 5.0 9.0 0.00 0.00 0.00 76 1015.4
20260506132502 79 145 4.0 9.0 0.00 0.00 0.00 76 1015.4
20260506132003 79 152 4.0 10.0 0.00 0.00 0.00 78 1015.4
20260506131502 79 150 4.0 10.0 0.00 0.00 0.00 77 1015.3
20260506131002 78 140 4.0 8.0 0.00 0.00 0.00 79 1015.3
20260506130502 78 142 3.0 10.0 0.00 0.00 0.00 79 1015.3
20260506130003 78 129 3.0 10.0 0.00 0.00 0.00 80 1015.3
20260506125502 77 116 3.0 7.0 0.00 0.00 0.00 82 1015.3
20260506125024 76 120 3.0 7.0 0.00 0.00 0.00 82 1015.3
20260506124502 76 122 3.0 7.0 0.00 0.00 0.00 84 1015.3
20260506124004 75 127 2.0 7.0 0.00 0.00 0.00 84 1015.3
20260506123502 75 126 2.0 6.0 0.00 0.00 0.00 85 1015.2
20260506123023 74 120 2.0 5.0 0.00 0.00 0.00 86 1015.2
20260506122502 73 127 2.0 5.0 0.00 0.00 0.00 87 1015.0
20260506122002 73 122 2.0 5.0 0.00 0.00 0.00 87 1015.0
20260506121502 72 119 2.0 5.0 0.00 0.00 0.00 87 1015.0
20260506121002 72 120 2.0 5.0 0.00 0.00 0.00 88 1014.9
20260506120503 72 117 2.0 5.0 0.00 0.00 0.00 88 1014.8
20260506120002 71 113 2.0 4.0 0.00 0.00 0.00 88 1014.8
20260506115523 71 101 1.0 4.0 0.00 0.00 0.00 88 1014.9
20260506115002 71 99 1.0 5.0 0.00 0.00 0.00 88 1014.8
20260506114523 70 104 1.0 5.0 0.00 0.00 0.00 88 1014.8
20260506114002 70 112 0.0 1.0 0.00 0.00 0.00 88 1014.8
20260506113502 70 112 0.0 2.0 0.00 0.00 0.00 88 1014.8
20260506113002 70 110 1.0 3.0 0.00 0.00 0.00 88 1014.8
20260506112502 69 105 1.0 3.0 0.00 0.00 0.00 88 1014.8
20260506112002 69 94 0.0 2.0 0.00 0.00 0.00 88 1014.7
20260506111523 69 96 0.0 4.0 0.00 0.00 0.00 87 1014.6
20260506111002 69 97 1.0 4.0 0.00 0.00 0.00 87 1014.6
20260506110502 69 104 0.0 2.0 0.00 0.00 0.00 87 1014.5
20260506110003 69 106 1.0 3.0 0.00 0.00 0.00 87 1014.4
20260506105502 69 98 0.0 3.0 0.00 0.00 0.00 87 1014.3
20260506105023 69 100 0.0 3.0 0.00 0.00 0.00 87 1014.3
20260506104504 69 120 0.0 3.0 0.00 0.00 0.00 87 1014.3
20260506104003 69 0 0.0 0.0 0.00 0.00 0.00 87 1014.2
20260506103502 69 0 0.0 0.0 0.00 0.00 0.00 87 1014.1
20260506103023 69 0 0.0 0.0 0.00 0.00 0.00 87 1014.1
20260506102502 69 0 0.0 0.0 0.00 0.00 0.00 87 1014.2
20260506102024 69 0 0.0 0.0 0.00 0.00 0.00 87 1014.2
20260506101502 69 120 0.0 2.0 0.00 0.00 0.00 86 1014.1
20260506101002 69 101 0.0 2.0 0.00 0.00 0.00 87 1014.2
20260506100502 69 102 0.0 2.0 0.00 0.00 0.00 86 1014.0
20260506100002 69 115 0.0 2.0 0.00 0.00 0.00 86 1013.8
20260506095502 69 0 0.0 0.0 0.00 0.00 0.00 86 1013.8
20260506095023 69 0 0.0 0.0 0.00 0.00 0.00 86 1013.8
20260506094502 69 0 0.0 0.0 0.00 0.00 0.00 86 1013.9
20260506094002 69 0 0.0 0.0 0.00 0.00 0.00 86 1013.9
20260506093503 69 0 0.0 0.0 0.00 0.00 0.00 86 1014.0
20260506093024 69 0 0.0 0.0 0.00 0.00 0.00 86 1014.0
20260506092502 69 0 0.0 0.0 0.00 0.00 0.00 86 1014.0
20260506092002 69 0 0.0 0.0 0.00 0.00 0.00 85 1014.0
20260506091502 69 0 0.0 0.0 0.00 0.00 0.00 85 1014.0
20260506091002 70 0 0.0 0.0 0.00 0.00 0.00 85 1014.0
20260506090502 70 0 0.0 0.0 0.00 0.00 0.00 85 1013.9
20260506090003 70 0 0.0 0.0 0.00 0.00 0.00 85 1014.1
20260506085502 70 94 0.0 1.0 0.00 0.00 0.00 85 1014.1
20260506085023 70 94 0.0 2.0 0.00 0.00 0.00 85 1014.0
20260506084502 70 94 0.0 2.0 0.00 0.00 0.00 85 1013.9
20260506084002 70 96 0.0 2.0 0.00 0.00 0.00 85 1013.9
20260506083502 71 99 0.0 2.0 0.00 0.00 0.00 85 1013.8
20260506083002 71 106 0.0 2.0 0.00 0.00 0.00 84 1013.7
20260506082502 71 105 0.0 3.0 0.00 0.00 0.00 85 1013.8
20260506082002 71 99 0.0 3.0 0.00 0.00 0.00 85 1013.8
20260506081502 71 95 0.0 3.0 0.00 0.00 0.00 84 1013.9
20260506081002 71 92 1.0 3.0 0.00 0.00 0.00 84 1013.9
20260506080502 71 108 1.0 3.0 0.00 0.00 0.00 84 1013.8
20260506073503 71 0 0.0 0.0 0.00 0.00 0.00 83 1014.1
20260506073003 72 0 0.0 0.0 0.00 0.00 0.00 83 1014.2
20260506072502 72 0 0.0 0.0 0.00 0.00 0.00 83 1014.2
20260506072024 72 0 0.0 0.0 0.00 0.00 0.00 83 1014.3
20260506071503 72 103 0.0 2.0 0.00 0.00 0.00 83 1014.3
20260506071002 72 104 0.0 3.0 0.00 0.00 0.00 83 1014.3
20260506070502 72 105 0.0 3.0 0.00 0.00 0.00 82 1014.3
20260506062503 73 101 1.0 3.0 0.00 0.00 0.00 81 1014.4
20260506062002 73 104 1.0 3.0 0.00 0.00 0.00 81 1014.3
20260506061503 73 108 1.0 3.0 0.00 0.00 0.00 81 1014.3
20260506061002 73 107 1.0 3.0 0.00 0.00 0.00 81 1014.3
20260506060503 73 112 1.0 4.0 0.00 0.00 0.00 81 1014.3
20260506051003 73 96 2.0 4.0 0.00 0.01 0.00 82 1015.1
20260506050502 73 100 2.0 4.0 0.00 0.01 0.00 82 1015.0
20260506045002 73 109 1.0 4.0 0.00 0.01 0.00 82 1014.8
20260506044503 73 120 2.0 7.0 0.00 0.01 0.00 83 1014.8
20260506044002 73 125 2.0 7.0 0.00 0.01 0.00 83 1014.8
20260506043503 73 121 2.0 5.0 0.00 0.01 0.00 83 1014.8
20260506043002 73 117 2.0 5.0 0.00 0.01 0.00 83 1014.8
20260506042502 74 123 1.0 5.0 0.00 0.01 0.00 83 1014.8
20260506042003 74 122 2.0 5.0 0.00 0.01 0.00 83 1014.8
20260506041502 74 118 1.0 5.0 0.00 0.01 0.00 83 1014.8
20260506041002 74 102 1.0 4.0 0.00 0.01 0.00 83 1014.8
20260506040503 74 88 1.0 4.0 0.00 0.01 0.00 83 1014.8
20260506040003 74 79 0.0 2.0 0.00 0.01 0.00 83 1014.8
20260506035502 74 79 0.0 2.0 0.00 0.01 0.01 83 1015.0
20260506035003 74 92 0.0 3.0 0.00 0.01 0.01 83 1015.0
20260506034502 74 118 1.0 3.0 0.00 0.01 0.01 83 1014.9
20260506034003 74 137 1.0 3.0 0.00 0.01 0.01 82 1014.8
20260506033502 74 121 1.0 3.0 0.00 0.01 0.01 82 1014.8
20260506033002 74 55 0.0 2.0 0.00 0.01 0.01 82 1014.8
20260506032502 74 13 0.0 2.0 0.00 0.01 0.01 82 1014.8
20260506032002 74 13 0.0 2.0 0.00 0.01 0.01 82 1014.8
20260506031503 74 13 0.0 2.0 0.00 0.01 0.01 82 1014.8
20260506031002 74 13 0.0 2.0 0.00 0.01 0.01 82 1014.8
20260506030502 74 13 0.0 2.0 0.00 0.01 0.01 82 1014.8
20260506030002 75 13 0.0 1.0 0.00 0.01 0.01 82 1014.7
20260506025502 75 13 0.0 2.0 0.00 0.01 0.01 82 1014.7
20260506025002 75 13 0.0 2.0 0.00 0.01 0.01 82 1014.8
20260506024502 75 13 0.0 1.0 0.00 0.01 0.01 82 1014.8
20260506024002 75 0 0.0 0.0 0.00 0.01 0.01 82 1014.7
20260506023524 75 0 0.0 0.0 0.00 0.01 0.01 82 1014.6
20260506023002 75 0 0.0 0.0 0.00 0.01 0.01 82 1014.4
20260506022502 75 0 0.0 0.0 0.00 0.01 0.01 81 1014.3
20260506022002 75 0 0.0 0.0 0.00 0.01 0.01 81 1014.4
20260506021502 75 0 0.0 0.0 0.00 0.01 0.01 82 1014.3
20260506021002 75 0 0.0 0.0 0.00 0.01 0.01 81 1014.3
20260506020502 75 0 0.0 0.0 0.00 0.01 0.01 81 1014.3
20260506020002 76 0 0.0 0.0 0.00 0.01 0.01 81 1014.3
20260506015502 76 0 0.0 0.0 0.00 0.01 0.01 81 1014.3
20260506015002 76 0 0.0 0.0 0.00 0.01 0.01 81 1014.3
20260506014502 76 0 0.0 0.0 0.00 0.01 0.01 81 1014.3
20260506014002 76 0 0.0 0.0 0.00 0.01 0.01 81 1014.2
20260506013502 76 0 0.0 0.0 0.00 0.01 0.01 81 1014.1
20260506013003 76 0 0.0 0.0 0.00 0.01 0.01 81 1014.0
20260506012502 76 322 0.0 4.0 0.00 0.01 0.01 80 1013.9
20260506012002 76 303 1.0 4.0 0.00 0.01 0.01 80 1013.7
20260506011504 76 308 1.0 3.0 0.00 0.01 0.01 80 1013.8
20260506011002 76 317 1.0 5.0 0.00 0.01 0.01 80 1013.7
20260506010502 76 308 2.0 6.0 0.00 0.01 0.01 80 1013.7
20260506010002 76 303 3.0 9.0 0.00 0.01 0.01 80 1013.7
20260506005502 76 305 4.0 9.0 0.00 0.01 0.01 80 1013.6
20260506005002 76 301 4.0 8.0 0.00 0.01 0.01 80 1013.6
20260506004503 76 296 4.0 7.0 0.00 0.01 0.01 80 1013.7
20260506004002 77 295 4.0 7.0 0.00 0.01 0.01 80 1013.7
20260506003502 77 299 4.0 9.0 0.00 0.01 0.01 79 1013.6
20260506003002 77 299 4.0 9.0 0.00 0.01 0.01 79 1013.6
20260506002502 77 301 3.0 7.0 0.00 0.01 0.01 79 1013.4
20260506002003 77 311 2.0 6.0 0.00 0.01 0.01 79 1013.3
20260506001502 77 301 3.0 6.0 0.00 0.01 0.01 79 1013.3
20260506001003 77 290 4.0 7.0 0.00 0.01 0.01 79 1013.2
20260506000503 77 296 3.0 7.0 0.00 0.01 0.01 78 1013.2
20260506000003 77 297 4.0 9.0 0.00 0.01 0.01 78 1013.2
20260505235502 77 290 4.0 9.0 0.00 0.01 0.01 78 1013.2
20260505235003 77 291 4.0 7.0 0.00 0.01 0.01 78 1013.1
20260505234502 78 295 3.0 7.0 0.00 0.01 0.01 77 1013.1
20260505234024 78 291 4.0 7.0 0.00 0.01 0.01 77 1012.9
20260505233502 78 280 5.0 8.0 0.00 0.01 0.01 77 1013.0
20260505233023 78 281 6.0 10.0 0.00 0.01 0.01 77 1013.0
20260505232502 78 284 6.0 11.0 0.00 0.01 0.01 76 1013.1
20260505232002 78 283 6.0 11.0 0.00 0.01 0.01 76 1013.2
20260505231502 78 284 6.0 11.0 0.00 0.01 0.01 76 1013.2
20260505231003 78 284 6.0 11.0 0.00 0.01 0.01 76 1013.1
20260505230502 78 279 7.0 12.0 0.00 0.01 0.01 75 1012.9
20260505230002 78 277 7.0 12.0 0.00 0.01 0.01 75 1012.9
20260505225502 79 278 7.0 13.0 0.00 0.01 0.01 75 1013.1
20260505225002 79 281 7.0 13.0 0.00 0.01 0.01 75 1013.1
20260505224502 79 283 6.0 11.0 0.00 0.01 0.01 75 1013.1
20260505224002 79 285 6.0 11.0 0.00 0.01 0.01 75 1013.0
20260505223503 79 283 7.0 14.0 0.00 0.01 0.01 75 1012.8
20260505223003 79 281 7.0 14.0 0.00 0.01 0.01 74 1012.8
20260505222503 79 278 7.0 12.0 0.00 0.01 0.01 75 1012.9
20260505222002 79 273 7.0 12.0 0.00 0.01 0.01 74 1012.8
20260505221502 79 275 7.0 12.0 0.00 0.01 0.01 75 1012.9
20260505221002 79 278 6.0 12.0 0.00 0.01 0.01 74 1012.9
20260505220502 79 277 6.0 11.0 0.00 0.01 0.01 74 1012.9
20260505220002 79 275 7.0 12.0 0.00 0.01 0.01 73 1012.9
20260505215502 79 281 6.0 12.0 0.00 0.01 0.01 73 1012.8
20260505215002 80 291 6.0 11.0 0.00 0.01 0.01 73 1012.8
20260505214503 80 284 7.0 11.0 0.00 0.01 0.01 73 1012.8
20260505214002 80 283 7.0 11.0 0.00 0.01 0.01 72 1012.7
20260505213503 80 287 7.0 12.0 0.00 0.01 0.01 72 1012.7
20260505213002 80 288 7.0 12.0 0.00 0.01 0.01 72 1012.7
20260505212502 80 288 8.0 15.0 0.00 0.01 0.01 72 1012.8
20260505212002 80 280 8.0 15.0 0.00 0.01 0.01 72 1012.9
20260505211502 80 274 9.0 14.0 0.00 0.01 0.01 73 1013.0
20260505211002 80 281 8.0 14.0 0.00 0.01 0.01 72 1012.9
20260505210523 80 285 8.0 14.0 0.00 0.01 0.01 72 1012.9
20260505210023 80 275 9.0 15.0 0.00 0.01 0.01 73 1013.1
20260505205503 80 272 9.0 15.0 0.00 0.01 0.01 71 1012.9
20260505205002 81 274 9.0 14.0 0.00 0.01 0.01 72 1013.0